Montreal Mirabel, Quebec

8:07 PM EST on February 05, 2016 (GMT -0500)
Montreal International (Mirabel)

Weather History for CYMX - February, 2011

Change the Weather History Date:

Friday, February 4, 2011

  Actual Average Record
Temperature  
Mean Temperature 18 °F -  
Max Temperature 23 °F 21 °F 41 °F (1999)
Min Temperature 12 °F 4 °F -13 °F (2001)
Degree Days  
Heating Degree Days 48    
Moisture  
Dew Point 11 °F    
Average Humidity 72    
Maximum Humidity 86    
Minimum Humidity 63    
Precipitation  
Precipitation 0.00 in - - ()
Sea Level Pressure  
Sea Level Pressure 30.01 in    
Wind  
Wind Speed 7 mph ()    
Max Wind Speed 12 mph    
Max Gust Speed 18 mph    
Visibility 15.0 miles    
Events Snow    
Averages and records for this station are not official NWS values.
T = Trace of Precipitation, MM = Missing Value Source: Averaged Metar Reports

Daily Weather History Graph

Daily Weather History Graph

Search for Another Location

Airport or City:

Trip Planner

Search our weather history database for the weather conditions in past years. The results will help you decide how hot, cold, wet, or windy it might be!

Date:

Astronomy

Feb. 04, 2011 Rise Set
Actual Time 7:14 AM EST 5:06 PM EST
Civil Twilight 6:42 AM EST 5:37 PM EST
Nautical Twilight 6:07 AM EST 6:13 PM EST
Astronomical Twilight 5:32 AM EST 6:48 PM EST
Moon 7:33 AM EST (2/4) 7:04 PM EST (2/4)
Length of Visible Light 10h 55m
Length of Day
9h 52m
New Moon, 2% of the Moon is Illuminated
Feb 4
New Moon
Feb 11
First Quarter
Feb 18
Full
Feb 24
Last Quarter
Mar 4
New

Hourly Weather History & Observations

Time (EST) Temp. Windchill Dew Point Humidity Pressure Visibility Wind Dir Wind Speed Gust Speed Precip Events Conditions
12:00 AM 14.0 °F 3.9 °F 8.6 °F 79% 30.12 in 25.0 mi SW 6.9 mph - N/A   Mostly Cloudy
1:00 AM 17.6 °F 5.0 °F 12.2 °F 79% 30.09 in 25.0 mi SW 11.5 mph 17.3 mph N/A Snow Low Drifting Snow
2:00 AM 17.6 °F 8.2 °F 12.2 °F 79% 30.09 in 25.0 mi SW 6.9 mph - N/A Snow Low Drifting Snow
3:00 AM 14.0 °F 6.5 °F 10.4 °F 86% 30.08 in 25.0 mi SW 4.6 mph - N/A   Mostly Cloudy
4:00 AM 12.2 °F 6.1 °F 8.6 °F 85% 30.06 in 25.0 mi SW 3.5 mph - N/A   Mostly Cloudy
5:00 AM 14.0 °F 2.0 °F 8.6 °F 79% 30.04 in 25.0 mi SW 9.2 mph - N/A   Scattered Clouds
6:00 AM 15.8 °F 6.1 °F 10.4 °F 79% 30.04 in 25.0 mi SW 6.9 mph - N/A   Mostly Cloudy
7:00 AM 17.6 °F 7.3 °F 12.2 °F 79% 30.02 in 25.0 mi SW 8.1 mph - N/A   Overcast
8:00 AM 19.4 °F 8.6 °F 14.0 °F 80% 30.01 in 25.0 mi SW 9.2 mph - N/A   Overcast
9:00 AM 19.4 °F 12.8 °F 14.0 °F 80% 30.01 in 25.0 mi WSW 4.6 mph - N/A   Overcast
10:00 AM 21.2 °F 10.9 °F 14.0 °F 74% 30.00 in 25.0 mi SW 9.2 mph - N/A   Overcast
11:00 AM 21.2 °F 10.9 °F 14.0 °F 74% 30.00 in 25.0 mi WSW 9.2 mph 18.4 mph N/A Snow Low Drifting Snow
11:37 AM 23.0 °F 13.1 °F 14.0 °F 68% - 15.0 mi WSW 9.2 mph - N/A Snow Light Snow Showers
12:00 PM 21.2 °F 10.9 °F 12.2 °F 68% 29.99 in 25.0 mi WSW 9.2 mph 18.4 mph N/A Snow Low Drifting Snow
1:00 PM 23.0 °F 12.4 °F 12.2 °F 63% 29.97 in 25.0 mi WSW 10.4 mph - N/A Snow Low Drifting Snow
1:51 PM 23.0 °F 13.9 °F 12.2 °F 63% - 25.0 mi SW 8.1 mph - N/A Snow Low Drifting Snow
2:00 PM 23.0 °F 15.8 °F 12.2 °F 63% 29.96 in 25.0 mi SW 5.8 mph - N/A Snow Low Drifting Snow
3:00 PM 23.0 °F 13.1 °F 12.2 °F 63% 29.97 in 30.0 mi SW 9.2 mph - N/A Snow Low Drifting Snow
4:00 PM 23.0 °F 13.1 °F 12.2 °F 63% 29.99 in 25.0 mi WSW 9.2 mph - N/A Snow Low Drifting Snow
5:00 PM 21.2 °F 12.6 °F 10.4 °F 63% 30.01 in 25.0 mi WSW 6.9 mph - N/A   Partly Cloudy
6:00 PM 21.2 °F 11.7 °F 10.4 °F 63% 30.01 in 25.0 mi SW 8.1 mph - N/A Snow Low Drifting Snow
7:00 PM 21.2 °F 13.6 °F 10.4 °F 63% 29.99 in 25.0 mi SW 5.8 mph - N/A   Scattered Clouds
8:00 PM 17.6 °F 9.3 °F 8.6 °F 68% 29.99 in 25.0 mi SSW 5.8 mph - N/A   Clear
9:00 PM 19.4 °F 11.5 °F 10.4 °F 68% 29.99 in 25.0 mi SSW 5.8 mph - N/A   Clear
10:00 PM 17.6 °F - 8.6 °F 68% 29.98 in 25.0 mi West 2.3 mph - N/A   Partly Cloudy
11:00 PM 15.8 °F - 10.4 °F 79% 29.95 in 25.0 mi Calm Calm - N/A   Partly Cloudy